User: anonymous   Login
Location: Unspecified
(0.0000°N, 0.0000°E)
Time: 12:10:42
(UTC+00:00)
Language:

USA 245 - Orbit

View from above orbital plane
View from above orbital plane
View from above satellite
View from above satellite

Ground track
Ground track

The orbit data is extracted from the following two-line orbital elements,

1 39232U 13043A   20214.91848412 0.00002973  00000-0  33509-4 0    04
2 39232  97.9071 275.6475 0526489 249.0191 111.0595 14.76394799    01
Epoch (UTC): 01 August 2020 22:02:37
Eccentricity: 0.0526489
inclination: 97.9071°
perigee height: 271 km
apogee height: 1010 km
right ascension of ascending node: 275.6475°
argument of perigee: 249.0191°
revolutions per day: 14.76394799
mean anomaly at epoch: 111.0595°
orbit number at epoch: 0

The dashed part of the orbit path shows where the satellite is in the earth's shadow,  

DLR